Location: The Saddle
(36.8333°N, 80.3417°W)
Time: 07:12:56
(UTC-04:00)

Transit 2A Rocket - All Passes

Search period start: 20 April 2024 00:00
Search period end: 30 April 2024 00:00
Orbit: 587 x 907 km, 66.7° (Epoch: 20 April)

Date Brightness Start Highest point End Pass type
(mag) Time Alt. Az. Time Alt. Az. Time Alt. Az.
20 Apr - 12:32:18 10° SSW 12:36:41 81° ESE 12:41:25 10° NNE daylight
20 Apr - 14:18:05 10° WNW 14:19:53 12° NW 14:21:44 10° NNW daylight
20 Apr - 21:16:29 10° NNW 21:21:51 41° ENE 21:27:28 10° SE visible
20 Apr - 22:59:16 10° NW 23:04:12 30° WSW 23:09:19 10° SSW visible
21 Apr - 11:48:49 10° S 11:52:53 38° ESE 11:57:13 10° NE daylight
21 Apr - 13:32:06 10° W 13:35:30 21° NW 13:39:07 10° N daylight
21 Apr - 20:33:02 10° N 20:37:40 25° NE 20:42:29 10° ESE visible
21 Apr - 22:14:50 10° NW 22:20:25 52° WSW 22:26:15 10° S visible
22 Apr - 11:06:06 10° SSE 11:09:13 19° ESE 11:12:28 10° ENE daylight
22 Apr - 12:47:10 10° SW 12:51:17 37° NW 12:55:45 10° NNE daylight
22 Apr - 19:50:02 10° N 19:53:20 15° NE 19:56:44 10° E daylight
22 Apr - 21:30:45 10° NNW 21:36:32 90° ENE 21:42:34 10° SSE visible
22 Apr - 23:16:16 10° W 23:18:21 12° WSW 23:20:27 10° WSW visible
23 Apr - 12:02:50 10° SSW 12:07:14 73° WNW 12:12:01 10° NNE daylight
23 Apr - 20:46:55 10° NNW 20:52:31 53° ENE 20:58:23 10° SE visible
23 Apr - 22:30:17 10° WNW 22:34:42 23° WSW 22:39:14 10° SSW visible
24 Apr - 11:19:03 10° S 11:23:20 55° ESE 11:27:58 10° NE daylight
24 Apr - 13:03:23 10° W 13:06:14 16° NW 13:09:15 10° N daylight
24 Apr - 20:03:19 10° N 20:08:23 32° NE 20:13:40 10° ESE daylight
24 Apr - 21:45:34 10° NW 21:50:56 40° WSW 21:56:31 10° S visible
25 Apr - 10:35:54 10° SSE 10:39:36 27° ESE 10:43:31 10° NE daylight
25 Apr - 12:18:03 10° WSW 12:21:56 28° NW 12:26:05 10° N daylight
25 Apr - 19:20:02 10° N 19:24:06 20° NE 19:28:19 10° E daylight
25 Apr - 21:01:19 10° NNW 21:07:05 71° WSW 21:13:06 10° SSE visible
26 Apr - 09:53:53 10° SE 09:55:58 13° ESE 09:58:07 10° ENE daylight
26 Apr - 11:33:26 10° SW 11:37:46 52° WNW 11:42:29 10° NNE daylight
26 Apr - 18:37:30 10° NNE 18:39:39 12° NE 18:41:51 10° ENE daylight
26 Apr - 20:17:21 10° NNW 20:23:06 69° ENE 20:29:07 10° SE daylight
26 Apr - 22:01:28 10° WNW 22:05:07 17° WSW 22:08:49 10° SW visible
27 Apr - 10:49:22 10° SSW 10:53:47 78° ESE 10:58:35 10° NNE daylight
27 Apr - 12:34:55 10° WNW 12:36:58 13° NW 12:39:05 10° NNW daylight
27 Apr - 19:33:37 10° NNW 19:39:01 40° ENE 19:44:39 10° SE daylight
27 Apr - 21:16:22 10° NW 21:21:23 30° WSW 21:26:34 10° SSW visible
28 Apr - 10:05:52 10° S 10:09:57 37° ESE 10:14:20 10° NE daylight
28 Apr - 11:49:02 10° W 11:52:33 22° NW 11:56:19 10° N daylight
28 Apr - 18:50:08 10° N 18:54:47 25° NE 18:59:35 10° ESE daylight
28 Apr - 20:31:54 10° NW 20:37:34 54° WSW 20:43:26 10° S visible
29 Apr - 09:23:09 10° SSE 09:26:16 19° ESE 09:29:31 10° ENE daylight
29 Apr - 11:04:06 10° SW 11:08:18 38° NW 11:12:52 10° NNE daylight
29 Apr - 18:07:05 10° N 18:10:24 15° NE 18:13:47 10° E daylight
29 Apr - 19:47:47 10° NNW 19:53:38 88° ENE 19:59:42 10° SSE daylight
29 Apr - 21:33:07 10° W 21:35:27 12° WSW 21:37:48 10° SW visible
